Flag for Switzerland Weather past 2 weeks in Bern, Bern, Switzerland

Now
66 °F

Partly sunny.


Feels Like: 66 °F
Forecast: 40 / 68 °F
Wind: 5 mph from Northwest

Location: Bern / Belp

Current Time: Aug 20, 2014 at 6:43:52 PM

Latest Report: Aug 20, 2014 at 6:20 PM


Visibility: N/A

Pressure: 30.01 "Hg

Humidity: 49%

Dew point: 46 °F

Location of BernLocation

Historic Weather in Bern — Graph

°F

Bern temperature yesterday

Maximum temperature yesterday: 70 °F (at 1:50 PM)
Minimum temperature yesterday: 54 °F (at 12:20 AM)
Average temperature yesterday: 61 °F

Past Weeks' High & Low Weather Summary

 TemperatureHumidityPressure
High82 °F (Aug 9, 4:50 PM)100% (Aug 6, 12:20 AM)30.21 "Hg (Aug 6, 12:20 AM)
Low45 °F (Aug 17, 5:20 AM)31% (Aug 18, 5:50 PM)29.68 "Hg (Aug 13, 8:50 AM)
Average62 °F79%30.00 "Hg
* Reported Aug 5 5:20 PM — Aug 20 5:50 PM, Bern, Weather by CustomWeather, © 2014

Note: Actual official high and low records may vary slightly from our data, if they occured in-between our weather recording intervals... More about our weather records

Advertising

Bern weather history for previous 24 hours

 ConditionsComfort  
Time TempWeatherWind HumidityBarometerVisibility
5:50 PM
Aug 20
66 °FPartly sunny.5 mph52%30.01 "HgN/A
5:20 PM66 °FOvercast.5 mph49%30.01 "HgN/A
4:50 PM66 °FBroken clouds.6 mph46%30.01 "HgN/A
4:20 PM68 °FBroken clouds.8 mph46%30.01 "HgN/A
3:50 PM66 °FBroken clouds.6 mph46%30.01 "HgN/A
3:20 PM66 °FBroken clouds.7 mph46%30.01 "HgN/A
2:50 PM68 °FBroken clouds.6 mph46%30.01 "HgN/A
2:20 PM66 °FBroken clouds.7 mph46%30.01 "HgN/A
1:50 PM66 °FScattered clouds.7 mph43%30.01 "HgN/A
1:20 PM68 °FScattered clouds.8 mph43%30.01 "HgN/A
12:50 PM66 °FScattered clouds.5 mph43%30.01 "HgN/A
12:20 PM64 °FScattered clouds.3 mph49%30.01 "HgN/A
11:50 AM64 °FScattered clouds.3 mph52%30.01 "HgN/A
11:20 AM64 °FScattered clouds.7 mph40%30.01 "HgN/A
10:50 AM63 °FPassing clouds.1 mph56%30.04 "HgN/A
10:20 AM63 °FPassing clouds.1 mph64%30.04 "HgN/A
9:50 AM63 °FScattered clouds.2 mph73%30.04 "HgN/A
9:20 AM57 °FScattered clouds.3 mph82%30.04 "HgN/A
8:50 AM55 °FPartly sunny.2 mph88%30.04 "HgN/A
8:20 AM54 °FPartly sunny.1 mph94%30.04 "HgN/A
7:50 AM54 °FScattered clouds.No wind94%30.04 "HgN/A
7:20 AM50 °FPassing clouds.3 mph94%30.04 "HgN/A
6:50 AM50 °FPassing clouds.No wind94%30.01 "HgN/A
6:20 AM50 °FPassing clouds.No wind100%30.01 "HgN/A
5:50 AM52 °FPassing clouds.1 mph100%30.01 "HgN/A
5:20 AM54 °FPassing clouds.1 mph94%30.04 "HgN/A
4:50 AM54 °FOvercast.1 mph100%30.04 "HgN/A
4:20 AM55 °FOvercast.1 mph94%30.04 "HgN/A
3:50 AM55 °FOvercast.1 mph94%30.04 "HgN/A
3:20 AM55 °FPassing clouds.2 mph94%30.01 "HgN/A
2:50 AM57 °FPassing clouds.1 mph94%30.01 "HgN/A
2:20 AM57 °FOvercast.1 mph88%30.01 "HgN/A
1:50 AM55 °FMostly cloudy.1 mph94%30.01 "HgN/A
1:20 AM57 °FPassing clouds.1 mph94%30.04 "HgN/A
12:50 AM57 °FPassing clouds.1 mph94%30.04 "HgN/A
12:20 AM57 °FPassing clouds.1 mph94%30.04 "HgN/A
11:50 PM
Aug 19
57 °FPassing clouds.1 mph94%30.04 "HgN/A
11:20 PM59 °FMostly cloudy.1 mph82%30.01 "HgN/A
10:50 PM59 °FMostly cloudy.1 mph88%30.01 "HgN/A
10:20 PM59 °FOvercast.1 mph82%30.01 "HgN/A
9:50 PM61 °FPassing clouds.2 mph68%30.01 "HgN/A
9:20 PM61 °FPartly sunny.No wind72%29.98 "HgN/A
8:50 PM63 °FPartly sunny.2 mph68%29.98 "HgN/A
8:20 PM63 °FPartly sunny.2 mph73%29.98 "HgN/A
7:50 PM66 °FPartly sunny.7 mph56%29.95 "HgN/A
7:20 PM68 °FPassing clouds.6 mph53%29.95 "HgN/A
6:50 PM68 °FPartly sunny.6 mph53%29.95 "HgN/A
6:20 PM68 °FPartly sunny.7 mph56%29.95 "HgN/A
Weather by CustomWeather, © 2014

See weather overviewHow to use our weather pages